Location: Bretagne
(43.8474°N, 0.4650°W)
Time: 18:46:29
(UTC+00:00)

Daily predictions for brighter satellites

Satellite Brightness Start Highest point End
(mag) Time Altitude Azimuth Time Altitude Azimuth Time Altitude Azimuth
CZ-2D R/B 3.4 17:17:22 10° SE 17:20:12 32° ENE 17:23:03 10° N
ATLAS 3B R/B 4.5 17:14:24 10° W 17:20:37 25° NNW 17:26:58 10° NNE
Cosmos 304 Rocket 4.3 17:15:57 10° NNW 17:20:41 66° WSW 17:25:22 10° S
SJ-12 4.2 17:17:10 10° SE 17:20:43 38° ENE 17:24:17 10° N
Cosmos 1484 Rocket 3.5 17:20:13 10° S 17:23:26 48° W 17:26:42 10° NNW
ATLAS 5 CENTAUR R/B 1.3 17:20:38 10° SW 17:23:32 51° NW 17:26:36 10° NNE
Cosmos 2366 rocket 4.2 17:17:34 10° N 17:23:46 52° ENE 17:29:55 10° SSE
Cosmos 1452 Rocket 4.5 17:19:48 10° SSE 17:24:13 28° E 17:28:39 10° NE
COSMO-SKYMED 1 4.1 17:24:25 10° NE 17:26:53 15° E 17:29:21 10° SE
OPS 8737 4.0 17:24:07 10° NNW 17:27:10 67° NE 17:30:17 10° SE
Cosmos 1633 Rocket 3.0 17:23:38 10° N 17:27:56 68° E 17:32:12 10° SSE
Cosmos 2218 Rocket 4.2 17:21:53 10° N 17:28:09 52° ENE 17:34:19 10° SSE
Meteor 1-21 4.5 17:29:54 10° SSE 17:35:15 47° E 17:40:35 10° NNE
Cosmos 332 Rocket 4.0 17:31:33 10° N 17:36:09 45° ENE 17:40:44 10° SE
Cosmos 1666 Rocket 3.8 17:33:11 10° NNW 17:37:38 77° W 17:42:03 10° S
ISS -3.7 17:35:24 10° SW 17:38:42 67° SE 17:41:35 13° ENE
Cosmos 1953 2.2 17:35:25 10° N 17:39:03 50° E 17:42:38 10° SSE
BREEZE-M DEB (TANK) 3.8 17:35:53 10° W 17:41:33 44° NNW 17:45:23 12° ENE
ERS-1 4.4 17:37:41 10° SSE 17:42:35 66° ENE 17:47:32 10° N
Cosmos 1328 Rocket 4.0 17:38:58 10° SSW 17:43:17 67° W 17:47:40 10° N
BREEZE-M DEB (TANK) 2.6 17:40:56 10° WNW 17:43:34 72° NNE 17:52:30 10° ESE
UNK 4.0 17:39:12 10° N 17:43:42 69° WNW 17:48:11 10° SSW
Cosmos 2341 Rocket 4.0 17:37:23 10° N 17:43:45 78° E 17:50:01 10° SSE
MOS 1 Rocket 3.6 17:38:41 10° SSE 17:43:58 87° WSW 17:49:06 10° NNW
Cosmos 1340 Rocket 3.9 17:41:59 10° NNE 17:44:58 21° ENE 17:47:58 10° ESE
IRS-P3 4.1 17:42:16 10° SSE 17:47:29 62° ENE 17:52:44 10° N
Landsat 7 4.1 17:43:10 10° S 17:47:47 70° WSW 17:52:27 10° NNW
USA 215 4.0 17:44:40 12° ENE 17:50:14 36° SE 17:56:09 10° SSW
Cosmos 1959 Rocket 4.4 17:45:20 10° N 17:51:28 72° E 17:57:36 10° SSE
Meteor 1-15 Rocket 4.4 17:47:23 10° NNW 17:53:20 85° W 17:59:10 10° S
SMAP 4.1 17:50:14 10° S 17:54:45 50° W 17:59:18 10° NNW
SKYMED 2 3.7 17:52:38 10° NNE 17:56:55 54° E 18:01:09 10° S
Okean 3 4.2 17:54:55 10° SSE 17:58:23 28° E 18:01:04 14° NE
Meteor 1-12 Rocket 4.3 17:52:52 10° N 17:58:27 56° ENE 18:03:58 10° SSE
SJ-6F 4.3 17:55:53 10° SSE 17:59:56 83° ENE 18:04:00 10° NNW
COSMOS 2455 4.4 17:58:29 10° N 18:01:50 15° NNE 18:03:11 14° NE
AQUARIUS 4.3 17:57:55 10° S 18:02:18 74° WSW 18:06:44 10° NNW
PSLV R/B 4.1 18:00:29 10° SE 18:04:11 32° ENE 18:07:53 10° N
CZ-4 R/B 4.2 18:00:33 10° SSE 18:04:28 70° ENE 18:08:25 10° N
SJ 16-02 3.9 18:02:04 10° NW 18:05:30 24° W 18:08:56 10° SSW
ARIANE 5 R/B 3.1 18:00:30 10° S 18:05:40 64° WSW 18:10:52 10° NNW
Cosmos 1515 Rocket 3.5 18:03:59 10° S 18:08:24 88° WNW 18:12:51 10° N
YAOGAN 1 2.6 18:04:32 10° SSE 18:08:39 50° ENE 18:12:47 10° N
SOZ 4.1 18:06:29 10° NW 18:08:43 69° NNE 18:12:08 14° ESE
Cosmos 1697 Rocket 4.1 18:05:33 10° N 18:09:22 18° NE 18:09:49 18° NE
Cosmos 1603 3.7 18:03:53 10° SSW 18:09:33 86° WNW 18:15:13 10° NNE
CZ-3 Stage 3 4.3 18:03:12 10° SW 18:14:49 24° S 18:19:41 10° SE
Cosmos 1833 Rocket 3.7 18:13:13 10° SSE 18:17:38 24° ESE 18:18:28 23° E
Resurs 01 Rocket 2.4 18:14:49 10° SE 18:18:35 29° ENE 18:22:21 10° N
Meteor 2-15 4.4 18:14:19 10° N 18:20:30 83° E 18:26:36 10° S
Okean 2 3.1 18:17:49 10° S 18:21:40 79° E 18:25:32 10° N
USA 267 3.8 18:20:26 23° ENE 18:23:58 40° NNE 18:29:58 10° NW
USA 238 DEB 4.1 18:16:29 10° NW 18:24:01 84° SW 18:32:09 10° SSE
USA 238 4.1 18:16:36 10° NW 18:24:07 85° SW 18:32:16 10° SSE
BREEZE M DEB (TANK) 3.7 18:22:39 10° W 18:24:56 38° SSW 18:29:40 10° SE
SL-24 R/B - RUBIN 2 3.5 18:20:44 10° NNW 18:25:02 59° NE 18:27:55 20° SE
Cosmos 968 Rocket 4.0 18:20:08 10° NNW 18:25:11 59° WSW 18:30:11 10° S
RESURS DK-1 2.1 18:26:29 10° SSW 18:30:27 74° ESE 18:32:05 34° NE
Cosmos 292 Rocket 3.6 18:30:48 10° NNW 18:35:31 84° ENE 18:40:13 10° SSE
BREEZE-M DEB (TANK) 2.8 18:34:24 10° WSW 18:36:56 68° NNW 18:38:15 39° NE
Cosmos 1821 Rocket 4.3 18:32:49 10° NNW 18:38:59 67° W 18:45:01 10° S
CZ-2D R/B 3.4 18:35:17 10° S 18:39:07 74° WSW 18:42:57 10° NNW
USA 276 3.1 18:36:57 10° W 18:38:41 32° NW 18:38:41 32° NW
Cosmos 1933 Rocket 3.8 18:35:10 10° NNW 18:39:33 70° W 18:43:52 10° S
Cosmos 1741 Rocket 4.4 18:35:03 10° NNW 18:40:13 65° WSW 18:45:20 10° S
Helios 1A Rocket 4.2 18:45:40 20° SSE 18:45:40 20° SSE 18:46:53 10° S
Cosmos 1302 Rocket 3.9 18:42:05 10° SSW 18:47:20 86° ESE 18:50:33 24° NNE
Cosmos 2360 4.1 18:42:32 10° NNW 18:48:15 67° ENE 18:52:21 19° SE
Cosmos 1339 Rocket 4.3 18:45:58 10° S 18:52:07 71° E 18:58:12 10° NNE
SL-08 R/B 4.4 18:46:05 10° N 18:52:34 78° E 18:59:01 10° SSE
Radarsat Rocket 4.1 18:47:36 10° SSE 18:53:59 79° WSW 18:59:55 10° NNW
NOAA 6 4.1 18:55:48 10° S 19:00:53 77° WSW 19:06:01 10° NNW
COSMO-SKYMED 1 3.4 18:59:11 14° N 19:02:25 46° WNW 19:06:21 10° SW
NOSS 3-4 (A) 4.4 18:58:48 10° WSW 19:03:42 36° NW 19:06:56 21° NNE
NOSS 3-4 (C) 4.3 18:58:55 10° WSW 19:03:51 37° NW 19:07:06 21° NNE
CARTOSAT-1 3.7 18:59:49 10° S 19:04:01 71° W 19:08:13 10° NNW
IRAS Rocket 4.2 19:00:21 10° SSE 19:05:51 86° WSW 19:11:27 10° NNW
Cosmos 1869 Rocket 4.3 19:01:53 10° NNW 19:06:09 51° W 19:10:22 10° S
Meteor 2-8 Rocket 4.4 19:04:40 10° N 19:10:51 83° W 19:17:00 10° S
USA 59 Rocket 2.2 19:11:21 10° NNW 19:11:42 13° NNW 19:11:42 13° NNW
ISS -1.5 19:12:45 10° W 19:14:32 23° NW 19:14:32 23° NW
Cosmos 1992 Rocket 3.8 19:11:35 10° SSW 19:16:46 86° ESE 19:16:54 84° ENE
Cosmos 1656 4.1 19:11:48 10° NNW 19:17:18 60° WSW 19:22:42 10° S
Cosmos 1934 Rocket 3.9 19:15:45 10° N 19:21:54 84° W 19:28:08 10° S
Cosmos 1980 Rocket 4.1 19:24:37 10° N 19:25:55 16° N 19:25:55 16° N
Cosmos 909 Rocket 4.1 19:24:36 10° SSW 19:32:32 73° ESE 19:32:59 70° E
USA 215 3.3 19:32:01 54° NNE 19:33:32 71° NW 19:40:01 10° WSW
NOSS 3-1 (C) 4.1 19:30:48 10° NNW 19:37:23 57° NE 19:37:23 57° NE
BREEZE-M DEB (TANK) 4.0 19:38:39 10° W 19:42:43 58° N 19:43:30 55° NNE
COSMOS 2455 4.0 19:43:10 10° NNW 19:46:20 31° N 19:46:20 31° N
Cosmos 1697 Rocket 3.8 19:48:23 10° NNW 19:51:35 35° NNW 19:51:35 35° NNW
Resurs 01 Rocket 3.5 19:51:10 10° SSW 19:54:54 27° W 19:58:39 10° NW
Cosmos 1833 Rocket 3.5 19:55:39 10° SW 20:00:13 47° W 20:00:13 47° W
USA 267 3.5 20:07:47 63° WNW 20:07:47 63° WNW 20:13:11 10° NW
